Wind_Speed
9 10 11 12 13 15 17 17 17 18 19 21 21 21 20 19 19 19 20 20 20 21 20 20 20 21 21 20 20 21 22 24 24 24 25 25 26 26 27 28 28 29 30 30
7 9 11 12 13 14 16 16 17 17 18 19 20 20 19 19 20 20 20 20 20 20 20 20 21 20 20 21 21 22 23 23 24 25 26 25 26 27 28 29 30 31 31 30
7 9 10 11 13 15 16 16 17 17 17 19 19 19 18 19 19 20 20 20 20 20 20 20 19 19 19 21 21 23 23 24 25 26 26 27 27 28 29 30 30 31 31 31
8 10 12 12 13 15 16 17 18 18 18 18 18 19 18 18 19 19 19 19 19 20 19 18 18 19 20 21 22 23 24 25 27 27 26 27 28 29 29 30 30 30 31 32
9 10 12 13 14 16 17 17 17 18 19 19 18 20 19 18 18 19 19 20 19 20 19 19 19 20 21 23 23 24 25 26 27 27 26 27 29 29 29 29 29 29 30 30
9 10 10 12 14 16 17 17 17 18 18 18 18 20 19 19 19 20 20 20 20 20 20 19 20 22 23 23 24 24 26 26 27 26 26 27 28 28 29 29 29 29 29 29
9 10 11 13 14 15 16 17 18 19 18 19 19 20 20 19 19 19 20 20 20 20 20 21 22 22 23 24 24 25 26 26 26 26 26 27 28 27 28 28 28 28 28 29
12 12 13 14 15 16 16 17 18 20 20 19 19 20 20 20 20 20 19 19 20 20 20 21 22 23 24 24 24 24 25 25 25 26 26 26 26 26 26 27 28 29 29 29
14 14 14 15 16 17 17 18 19 21 22 21 21 20 19 19 20 20 20 20 20 20 20 21 22 23 23 23 23 23 23 23 24 24 25 25 25 25 25 26 27 27 28 28
17 17 16 17 17 18 20 20 21 22 23 24 22 19 19 19 20 21 20 20 19 20 20 21 21 22 22 22 22 23 23 24 23 23 23 23 24 25 25 25 25 26 26 26
18 19 19 19 19 20 20 20 21 22 23 24 23 20 20 20 20 20 20 20 19 20 20 20 20 19 20 21 22 23 23 23 23 23 23 23 24 24 24 24 24 24 24 24
19 20 21 20 20 21 21 20 21 22 22 23 24 21 20 20 20 19 19 19 19 19 19 18 18 18 20 20 22 23 23 23 23 22 23 23 23 23 23 23 24 24 23 24
21 21 22 21 20 20 21 21 22 23 23 23 23 22 21 21 20 19 19 19 18 18 17 18 18 19 19 20 22 23 23 22 22 22 22 23 23 23 23 23 23 23 22 22
21 22 22 21 21 21 21 21 21 22 24 24 23 23 21 19 19 19 18 18 18 17 17 18 18 18 19 21 22 23 21 21 21 22 22 22 22 22 22 22 22 22 22 21
22 22 22 21 21 21 21 21 22 23 24 25 23 23 21 19 19 19 19 18 17 17 18 18 18 18 19 20 20 20 20 20 20 21 22 22 22 22 21 21 21 21 21 21
23 23 22 21 20 20 20 21 22 22 22 23 23 22 20 19 18 18 18 18 17 18 18 18 18 18 18 19 19 19 19 20 20 21 21 21 21 20 19 19 19 19 19 20
23 23 23 22 20 20 20 20 21 21 20 20 20 20 19 18 18 18 17 17 17 18 18 17 17 16 17 18 18 18 19 19 19 19 19 19 18 18 17 17 17 17 18 17
23 23 24 23 21 21 19 19 19 19 18 19 18 19 19 18 17 17 17 17 17 17 16 15 16 16 16 16 17 18 18 18 18 17 17 17 17 16 16 16 16 16 16 16
22 22 23 23 22 22 20 19 18 18 18 18 17 17 16 15 15 15 16 15 14 14 14 14 14 14 14 15 16 17 16 17 16 16 16 15 15 15 16 15 16 16 16 16
21 21 21 21 22 22 20 19 18 18 16 16 16 15 13 12 12 12 13 13 11 11 11 13 13 13 13 14 15 15 15 15 15 15 14 14 14 15 15 15 16 16 16 16
21 20 20 20 20 20 19 18 17 16 15 15 14 13 12 11 10 10 10 11 10 10 10 11 11 12 12 13 13 14 13 14 14 14 13 14 14 15 15 15 16 16 17 17
21 20 20 20 20 18 18 17 16 15 14 13 13 12 12 11 9 9 8 8 8 9 9 9 10 11 11 11 11 12 12 12 13 14 14 14 14 14 15 16 16 17 17 17
21 21 19 18 17 17 17 17 15 15 14 13 12 10 10 10 8 8 8 7 7 8 8 8 9 9 9 9 10 11 11 12 13 14 14 14 15 15 16 17 17 17 17 18
19 19 18 16 15 16 16 15 15 14 13 12 12 10 9 8 7 8 8 6 6 6 6 6 7 8 8 8 9 11 12 13 13 13 14 15 15 16 17 17 18 18 18 18
17 17 16 14 14 14 14 15 15 13 12 12 11 10 9 7 6 6 6 6 6 5 5 6 7 8 8 8 9 11 12 13 13 14 14 15 16 17 17 18 19 19 19 19
16 16 15 14 14 15 14 15 14 12 11 11 11 10 9 7 6 6 6 6 5 4 4 5 6 7 7 8 10 11 12 12 14 14 15 16 17 18 18 19 19 19 19 19
Wind_Direction
224 231 236 240 242 244 248 255 257 260 261 264 269 273 276 279 280 280 282 281 281 280 282 285 288 289 288 287 287 288 289 289 290 288 286 285 284 284 284 284 283 284 284 284
232 239 245 245 248 249 253 259 263 263 265 268 272 275 280 283 284 283 285 287 285 284 286 288 288 287 289 290 290 292 293 291 289 289 287 284 284 284 283 284 284 284 284 285
246 250 253 252 251 253 256 263 269 272 273 275 275 277 280 284 287 288 287 288 286 288 289 286 287 291 293 296 297 295 294 294 292 290 289 286 285 285 285 285 284 284 284 284
257 256 254 252 254 258 261 265 270 271 273 275 278 282 282 284 286 288 290 292 290 288 291 288 289 292 294 297 299 298 297 297 296 292 289 287 287 288 288 287 287 286 286 285
268 268 264 261 261 263 266 269 274 276 278 279 283 286 288 289 289 289 290 292 291 292 292 290 290 293 294 297 300 300 301 301 300 296 292 292 290 289 288 288 288 287 288 288
278 278 275 273 270 269 272 273 277 280 282 284 289 290 293 294 292 291 289 290 290 291 289 290 292 293 294 296 299 301 303 304 302 297 296 293 291 289 289 288 288 288 289 289
284 281 284 284 281 277 278 281 285 286 287 290 292 290 293 293 292 291 292 291 290 291 289 289 292 294 295 296 299 301 304 306 304 299 297 296 294 293 292 290 289 289 289 288
289 283 282 282 283 284 283 284 288 292 292 292 291 292 296 294 293 292 292 292 292 292 291 291 293 294 296 298 300 302 305 306 306 301 299 299 298 297 295 294 292 291 290 290
291 285 282 279 278 281 282 285 289 291 293 295 296 298 296 295 293 293 295 294 295 295 294 294 295 295 298 300 302 304 306 308 308 305 302 302 302 300 299 298 297 296 295 293
290 287 286 283 281 280 282 282 286 290 294 297 297 298 300 297 294 294 295 297 298 297 297 297 298 299 303 301 302 304 307 308 310 309 308 306 304 303 302 300 298 298 296 296
292 289 287 286 284 284 280 281 283 286 290 294 295 298 299 299 298 297 296 298 301 300 300 301 301 302 303 303 303 305 309 311 312 312 310 310 309 307 305 304 303 302 301 299
293 291 288 286 285 284 286 284 282 283 286 289 292 297 297 298 298 297 299 301 302 303 303 303 304 303 303 304 306 308 311 312 313 312 311 312 311 310 308 307 306 305 304 302
294 293 291 287 284 282 282 284 285 285 286 288 290 295 297 295 294 295 298 300 301 303 304 304 304 305 304 305 307 310 311 313 314 315 315 314 312 312 311 311 310 308 307 305
293 294 293 292 289 285 281 281 282 284 286 288 291 294 294 291 291 295 297 298 299 300 301 304 306 307 307 307 309 311 314 317 317 317 317 316 315 314 313 312 312 311 309 307
290 291 291 290 288 286 282 282 283 286 289 289 291 292 294 290 290 293 295 296 296 297 298 300 304 306 309 311 313 315 317 318 318 319 320 318 316 315 315 316 315 315 313 312
289 290 291 288 286 286 285 284 285 288 291 292 292 292 291 288 288 289 292 293 292 296 299 300 301 305 308 312 314 316 317 319 320 321 320 320 320 320 319 318 319 319 318 317
289 290 290 289 285 284 285 286 286 286 289 290 291 291 289 287 286 286 289 290 293 297 300 303 305 308 310 314 318 320 322 324 323 323 324 326 327 327 325 324 325 326 326 325
289 289 290 291 288 286 292 290 288 286 286 288 290 291 292 290 288 286 288 291 292 295 298 301 305 308 312 318 322 324 325 327 328 329 329 332 333 335 335 332 334 334 335 335
288 289 290 291 290 290 290 290 286 286 285 288 290 292 292 292 289 287 287 292 292 297 300 302 306 310 316 322 328 331 329 331 333 333 334 335 337 339 341 341 342 342 342 343
288 289 290 291 291 291 291 290 287 287 286 287 290 292 289 290 288 290 291 294 297 299 302 304 307 314 319 325 331 336 337 339 340 341 341 340 341 344 344 345 347 347 348 347
288 286 285 284 284 287 289 287 284 283 285 285 287 290 289 286 286 291 294 296 301 304 305 307 313 319 324 329 333 338 341 344 345 346 346 346 347 349 349 348 347 348 349 349
285 283 283 281 281 284 283 280 281 282 282 285 287 288 289 284 283 292 295 298 310 315 314 316 322 327 332 337 342 345 347 349 349 348 348 348 347 350 351 351 350 349 348 347
283 280 280 279 281 283 280 280 279 281 281 282 282 281 284 285 280 293 301 304 316 322 320 322 325 331 340 346 349 351 352 351 350 350 351 351 351 350 352 351 350 349 349 348
281 276 277 276 275 277 275 274 275 276 276 275 274 272 274 281 280 286 291 298 309 322 330 334 336 338 347 350 353 355 355 353 353 353 354 355 354 353 352 351 350 348 347 346
278 276 277 274 275 271 268 268 270 270 267 266 264 262 257 261 275 281 280 286 300 310 323 335 339 346 354 353 353 356 358 357 354 352 352 352 352 352 351 351 351 350 348 347
271 273 277 277 275 271 263 263 261 259 260 263 263 256 246 253 260 264 274 278 285 293 314 335 342 351 357 355 355 355 357 357 354 350 350 351 351 350 350 351 351 351 350 349
Height
5840 5842 5842 5843 5844 5844 5845 5845 5846 5846 5846 5846 5846 5846 5845 5845 5844 5843 5843 5842 5842 5841 5840 5839 5837 5836 5834 5833 5831 5830 5828 5827 5824 5822 5821 5819 5818 5817 5815 5813 5812 5811 5809 5807
5840 5840 5841 5841 5842 5842 5843 5843 5843 5844 5843 5843 5843 5843 5842 5842 5841 5840 5839 5839 5838 5837 5836 5834 5833 5831 5830 5828 5826 5825 5823 5821 5818 5816 5814 5812 5811 5810 5809 5807 5805 5804 5802 5800
5839 5840 5839 5840 5840 5840 5841 5841 5841 5841 5840 5840 5840 5840 5839 5838 5837 5836 5835 5834 5833 5832 5831 5829 5828 5826 5825 5824 5822 5820 5818 5815 5813 5810 5808 5806 5804 5803 5802 5800 5798 5796 5794 5792
5837 5838 5838 5838 5838 5838 5838 5838 5837 5837 5837 5836 5836 5835 5836 5835 5834 5833 5832 5830 5829 5827 5826 5825 5823 5822 5820 5819 5817 5815 5812 5809 5807 5804 5802 5800 5798 5796 5795 5793 5791 5789 5787 5785
5836 5836 5836 5836 5836 5835 5835 5835 5834 5834 5833 5833 5832 5831 5832 5830 5829 5829 5827 5826 5824 5823 5822 5820 5819 5817 5815 5813 5811 5809 5806 5803 5800 5798 5795 5793 5791 5789 5787 5785 5783 5781 5779 5777
5835 5834 5833 5833 5833 5833 5832 5832 5831 5830 5830 5829 5829 5827 5827 5826 5825 5824 5822 5821 5819 5818 5817 5815 5814 5812 5810 5808 5806 5803 5800 5797 5794 5791 5789 5786 5784 5782 5780 5778 5776 5774 5772 5770
5833 5832 5831 5831 5830 5830 5829 5829 5828 5827 5826 5825 5825 5823 5823 5822 5820 5819 5818 5816 5815 5813 5812 5811 5809 5807 5805 5803 5800 5798 5794 5791 5788 5785 5782 5780 5777 5775 5773 5770 5768 5766 5764 5762
5829 5830 5829 5828 5827 5826 5826 5826 5825 5823 5822 5821 5820 5819 5819 5817 5816 5814 5813 5812 5810 5809 5807 5805 5804 5802 5800 5797 5795 5791 5788 5785 5782 5779 5776 5773 5770 5768 5765 5763 5761 5759 5756 5754
5825 5826 5826 5825 5824 5823 5822 5821 5821 5819 5817 5816 5816 5815 5814 5812 5811 5809 5808 5806 5805 5804 5802 5800 5798 5796 5794 5791 5789 5786 5783 5780 5777 5773 5770 5767 5764 5761 5758 5756 5754 5751 5749 5746
5821 5821 5822 5821 5820 5819 5818 5817 5816 5814 5812 5811 5811 5810 5810 5808 5806 5805 5804 5802 5801 5799 5797 5795 5793 5790 5788 5786 5783 5780 5778 5774 5771 5768 5764 5761 5758 5755 5752 5750 5747 5744 5741 5739
5817 5816 5816 5816 5815 5814 5814 5813 5811 5810 5809 5807 5805 5808 5806 5804 5802 5800 5799 5798 5796 5794 5792 5790 5788 5786 5783 5781 5778 5775 5772 5769 5766 5763 5759 5756 5753 5749 5746 5743 5740 5737 5735 5732
5813 5811 5810 5811 5810 5809 5808 5808 5807 5806 5804 5802 5801 5804 5801 5799 5797 5796 5795 5793 5791 5790 5788 5785 5783 5781 5779 5776 5773 5770 5767 5764 5761 5758 5754 5751 5747 5744 5741 5738 5735 5732 5729 5726
5808 5807 5805 5805 5807 5805 5803 5803 5801 5800 5799 5798 5796 5799 5797 5795 5793 5792 5790 5789 5787 5785 5783 5781 5779 5777 5774 5771 5769 5766 5762 5759 5756 5753 5749 5746 5742 5739 5736 5732 5729 5726 5723 5720
5803 5802 5801 5800 5799 5799 5798 5798 5797 5796 5794 5793 5792 5792 5792 5790 5788 5787 5786 5784 5782 5781 5779 5777 5775 5772 5769 5766 5764 5761 5757 5754 5751 5748 5744 5741 5737 5734 5731 5727 5724 5721 5718 5715
5798 5797 5796 5795 5794 5793 5793 5793 5792 5791 5789 5788 5788 5786 5786 5785 5783 5782 5781 5779 5778 5776 5775 5773 5770 5768 5765 5762 5759 5756 5753 5750 5747 5743 5740 5736 5733 5729 5726 5722 5719 5716 5713 5710
5793 5792 5791 5791 5790 5788 5788 5788 5787 5786 5784 5783 5781 5781 5780 5779 5778 5777 5776 5775 5773 5772 5770 5768 5766 5764 5761 5758 5755 5752 5749 5746 5742 5739 5736 5732 5728 5725 5721 5718 5715 5712 5709 5706
5788 5787 5786 5785 5785 5784 5784 5784 5782 5781 5780 5778 5776 5776 5774 5774 5773 5773 5772 5770 5769 5767 5766 5764 5762 5760 5758 5755 5752 5749 5745 5742 5738 5735 5732 5728 5725 5721 5718 5715 5712 5709 5705 5702
5783 5782 5780 5779 5780 5779 5782 5778 5777 5776 5775 5772 5771 5769 5769 5768 5768 5768 5767 5766 5765 5764 5762 5761 5759 5756 5754 5752 5749 5745 5742 5738 5735 5731 5729 5725 5722 5719 5716 5712 5709 5706 5703 5699
5778 5777 5775 5774 5773 5773 5775 5773 5772 5770 5770 5768 5767 5766 5764 5764 5764 5764 5763 5762 5761 5760 5758 5757 5755 5753 5751 5749 5746 5743 5739 5736 5732 5729 5726 5723 5720 5717 5714 5711 5708 5705 5701 5698
5773 5772 5771 5769 5768 5767 5770 5768 5767 5767 5765 5764 5763 5762 5761 5761 5761 5761 5760 5759 5758 5756 5755 5754 5753 5751 5749 5747 5744 5741 5737 5734 5731 5728 5725 5722 5719 5716 5712 5710 5707 5703 5700 5697
5768 5767 5766 5765 5763 5763 5764 5763 5763 5763 5763 5761 5759 5759 5759 5758 5759 5758 5757 5756 5755 5754 5753 5752 5750 5749 5747 5744 5742 5739 5736 5733 5730 5727 5724 5721 5717 5715 5712 5708 5705 5702 5699 5695
5761 5761 5760 5759 5759 5761 5758 5757 5757 5758 5757 5756 5756 5756 5756 5756 5756 5755 5754 5754 5753 5752 5751 5750 5749 5747 5745 5742 5740 5738 5735 5732 5729 5726 5723 5720 5717 5714 5711 5708 5704 5701 5698 5694
5755 5755 5754 5755 5756 5755 5753 5752 5752 5752 5753 5753 5752 5752 5753 5753 5753 5753 5752 5752 5751 5751 5750 5748 5747 5746 5743 5741 5739 5737 5734 5731 5728 5725 5722 5719 5716 5713 5710 5707 5703 5700 5696 5693
5750 5749 5748 5749 5750 5750 5749 5748 5748 5748 5748 5749 5749 5749 5750 5750 5750 5751 5751 5751 5750 5749 5748 5747 5746 5744 5742 5740 5738 5736 5733 5730 5728 5725 5722 5719 5716 5712 5709 5706 5702 5698 5695 5691
5744 5743 5743 5744 5745 5745 5745 5744 5745 5744 5745 5745 5746 5746 5747 5748 5748 5749 5749 5749 5749 5748 5747 5746 5745 5743 5741 5740 5738 5735 5733 5730 5727 5724 5721 5718 5715 5712 5708 5705 5701 5697 5693 5689
5740 5739 5739 5740 5740 5740 5740 5740 5741 5741 5742 5742 5743 5744 5745 5745 5746 5747 5747 5747 5747 5746 5746 5745 5744 5742 5741 5739 5737 5735 5732 5729 5726 5723 5721 5717 5714 5711 5707 5704 5700 5695 5691 5687